Terminal Aerodrome Forecast
Issued by NWS Cleveland, OH

Home | Current Version | Previous Version | Text Only | Print | Product List | Glossary On
Versions: 1 2 3 4 5 6 7 8 9 10 11 12 13 14 15 16 17 18 19 20 21 22 23
293
FTUS41 KCLE 290253 AAB
TAFCLE
TAF AMD
KCLE 290253Z 2903/3006 08010KT 6SM -RA SCT030 OVC060
      TEMPO 2906/2910 3SM -RA OVC030
     FM291000 10010KT 5SM -RA OVC030
     FM291800 07015G25KT P6SM VCSH OVC035
     FM300000 09015G25KT 3SM -RA BR SCT010 OVC025=

USA.gov is the U.S. government's official web portal to all federal, state and local government web resources and services.